sat.trackr.live / text

‹ back to catalog

STARLINK-31255

NORAD 58893 · 2024-020T

PAYLOAD ACTIVE UNKNOWN

§ Identity

Operator
Country
US
Launch date
2024-01-29
Launch site
AFWTR
Launch vehicle
Mass (kg)
RCS (m²)

Purposes: comms

External: N2YO · Heavens-Above · Gunter

§ Orbital elements

Epoch: 2026-09-20T00:50:59.233056Z

Period
93.85 min
Inclination
53.1585°
Eccentricity
0.0001719
Mean motion
15.34394161 rev/d
Perigee alt
461.5 km
Apogee alt
463.9 km
Semi-major
6,840.9 km
B*
-2.8627e-5
RAAN
135.6373°
Arg perigee
72.3350°
Mean anomaly
287.7841°
Rev number
14,788

§ Raw data

STARLINK-312551 58893U 24020T   26263.03540779 -.00001343  00000+0 -28627-4 0  99962 58893  53.1585 135.6373 0001719  72.3350 287.7841 15.34394161147880

JSON: /api/v1/satellites/58893 · /tle

For live sub-satellite position, see the globe view (requires WebGL).

§ Visibility from observer

Set your observer location to see the next 7 days of passes ≥ 10°. The values pass through the URL so the page stays shareable.

No JS? Fill the form by hand. The geolocation button needs JavaScript.